GW6266 Weather Reports


time (UTC)temp
C
wind
direction
speed
KPH
gust
KPH
rain 1hr
cm
rain 24hr
cm
rain mn
cm
humidity
%
barometer
mb
20260505035532 17 290 0.0 0.0 0.00 0.00 0.00 44 1008.4
20260505035317 17 290 0.0 0.0 0.00 0.00 0.00 43 1008.4
20260505034530 17 290 0.0 0.0 0.00 0.00 0.00 42 1008.5
20260505034319 18 290 0.0 3.2 0.00 0.00 0.00 42 1008.4
20260505033531 18 290 0.0 3.2 0.00 0.00 0.00 40 1008.2
20260505033032 18 290 0.0 0.0 0.00 0.00 0.00 40 1008.1
20260505032531 19 290 0.0 0.0 0.00 0.00 0.00 39 1008.1
20260505032033 19 290 0.0 1.6 0.00 0.00 0.00 38 1008.0
20260505031531 19 290 0.0 3.2 0.00 0.00 0.00 37 1008.0
20260505031110 20 292 0.0 3.2 0.00 0.00 0.00 37 1007.9
20260505031056 20 238 0.0 3.2 0.00 0.00 0.00 37 1007.9
20260505030031 20 227 0.0 3.2 0.00 0.00 0.00 35 1007.9
20260505025531 20 210 0.0 3.2 0.00 0.00 0.00 36 1007.8
20260505025031 20 293 1.6 3.2 0.00 0.00 0.00 35 1007.8
20260505024532 20 252 0.0 3.2 0.00 0.00 0.00 35 1007.8
20260505024031 21 196 0.0 3.2 0.00 0.00 0.00 36 1007.8
20260505023533 21 272 0.0 3.2 0.00 0.00 0.00 35 1007.7
20260505023032 21 220 0.0 4.8 0.00 0.00 0.00 35 1007.7
20260505022531 21 206 0.0 4.8 0.00 0.00 0.00 35 1007.6
20260505022031 21 300 1.6 3.2 0.00 0.00 0.00 34 1007.6
20260505021532 21 265 0.0 6.4 0.00 0.00 0.00 33 1007.7
20260505021032 21 166 0.0 6.4 0.00 0.00 0.00 33 1007.7
20260505020531 22 228 1.6 8.0 0.00 0.00 0.00 32 1007.6
20260505020031 22 316 3.2 8.0 0.00 0.00 0.00 32 1007.5
20260505015530 22 200 1.6 4.8 0.00 0.00 0.00 32 1007.5
20260505015031 22 266 0.0 6.4 0.00 0.00 0.00 32 1007.4
20260505014532 22 283 1.6 6.4 0.00 0.00 0.00 30 1007.4
20260505014402 22 286 3.2 6.4 0.00 0.00 0.00 31 1007.6
20260505014356 22 199 1.6 6.4 0.00 0.00 0.00 30 1007.5
20260505013031 22 193 1.6 6.4 0.00 0.00 0.00 30 1007.5
20260505012531 22 320 0.0 9.7 0.00 0.00 0.00 30 1007.5
20260505012317 23 316 0.0 9.7 0.00 0.00 0.00 30 1007.5
20260505011533 23 0 0.0 8.0 0.00 0.00 0.00 31 1007.6
20260505011029 23 213 3.2 8.0 0.00 0.00 0.00 31 1007.7
20260505010529 23 279 1.6 8.0 0.00 0.00 0.00 31 1007.6
20260505010031 23 296 1.6 4.8 0.00 0.00 0.00 32 1007.6
20260505005530 23 289 0.0 8.0 0.00 0.00 0.00 32 1007.6
20260505005029 23 230 3.2 8.0 0.00 0.00 0.00 32 1007.5
20260505004529 23 288 1.6 8.0 0.00 0.00 0.00 32 1007.6
20260505004030 23 302 1.6 8.0 0.00 0.00 0.00 32 1007.7
20260505003529 23 290 0.0 8.0 0.00 0.00 0.00 32 1007.7
20260505003313 23 128 1.6 9.7 0.00 0.00 0.00 32 1007.7
20260505002529 23 251 1.6 9.7 0.00 0.00 0.00 31 1007.7
20260505002029 24 204 3.2 11.3 0.00 0.00 0.00 32 1007.8
20260505001530 24 299 1.6 11.3 0.00 0.00 0.00 31 1007.8
20260505001029 24 269 3.2 17.7 0.00 0.00 0.00 31 1007.7
20260505000820 24 241 1.6 17.7 0.00 0.00 0.00 31 1007.8
20260505000029 25 252 3.2 9.7 0.00 0.00 0.00 31 1007.7
20260504235529 25 241 3.2 6.4 0.00 0.00 0.00 30 1007.7
20260504235322 25 226 3.2 11.3 0.00 0.00 0.00 30 1007.8
20260504234528 25 176 3.2 11.3 0.00 0.00 0.00 30 1007.7
20260504234026 25 306 1.6 11.3 0.00 0.00 0.00 29 1007.7
20260504233524 25 171 1.6 9.7 0.00 0.00 0.00 29 1007.6
20260504233025 25 23 3.2 8.0 0.00 0.00 0.00 29 1007.7
20260504232524 25 182 0.0 8.0 0.00 0.00 0.00 30 1007.8
20260504232018 25 247 1.6 4.8 0.00 0.00 0.00 30 1007.7
20260504231519 24 230 1.6 4.8 0.00 0.00 0.00 32 1007.7
20260504231019 24 155 0.0 9.7 0.00 0.00 0.00 30 1007.7
20260504230518 25 257 1.6 9.7 0.00 0.00 0.00 30 1007.8
20260504230019 24 310 1.6 8.0 0.00 0.00 0.00 32 1007.8
20260504225517 24 295 1.6 8.0 0.00 0.00 0.00 32 1007.9
20260504225259 24 285 0.0 4.8 0.00 0.00 0.00 32 1007.9
20260504224515 23 172 1.6 4.8 0.00 0.00 0.00 32 1008.0
20260504224302 24 180 1.6 6.4 0.00 0.00 0.00 32 1008.0
20260504223507 23 179 0.0 8.0 0.00 0.00 0.00 32 1008.0
20260504223252 23 178 1.6 8.0 0.00 0.00 0.00 32 1008.1
20260504222508 23 193 1.6 6.4 0.00 0.00 0.00 33 1008.2
20260504222002 24 173 1.6 4.8 0.00 0.00 0.00 34 1008.1
20260504221503 24 233 0.0 4.8 0.00 0.00 0.00 34 1008.2
20260504221003 24 237 0.0 4.8 0.00 0.00 0.00 35 1008.1
20260504220502 24 188 1.6 6.4 0.00 0.00 0.00 33 1008.2
20260504220248 24 281 1.6 6.4 0.00 0.00 0.00 34 1008.4
20260504215501 23 314 1.6 3.2 0.00 0.00 0.00 34 1008.5
20260504215001 23 179 0.0 4.8 0.00 0.00 0.00 34 1008.4
20260504214748 23 200 0.0 4.8 0.00 0.00 0.00 34 1008.4
20260504214003 23 168 0.0 3.2 0.00 0.00 0.00 35 1008.4
20260504213459 23 172 0.0 4.8 0.00 0.00 0.00 34 1008.4
20260504213001 23 169 0.0 4.8 0.00 0.00 0.00 35 1008.5
20260504212459 23 213 1.6 4.8 0.00 0.00 0.00 35 1008.5
20260504212000 24 175 0.0 6.4 0.00 0.00 0.00 36 1008.5
20260504211744 23 186 1.6 6.4 0.00 0.00 0.00 37 1008.5
20260504210958 23 157 0.0 6.4 0.00 0.00 0.00 36 1008.6
20260504210802 23 176 1.6 6.4 0.00 0.00 0.00 39 1008.6
20260504210032 23 244 1.6 3.2 0.00 0.00 0.00 39 1008.7
20260504210019 23 193 0.0 6.4 0.00 0.00 0.00 38 1008.7
20260504204954 23 173 0.0 3.2 0.00 0.00 0.00 40 1008.8
20260504204453 23 171 0.0 3.2 0.00 0.00 0.00 39 1008.8
20260504203954 23 172 1.6 3.2 0.00 0.00 0.00 38 1008.8
20260504203454 23 172 0.0 4.8 0.00 0.00 0.00 39 1008.8
20260504202952 23 180 1.6 6.4 0.00 0.00 0.00 37 1008.9
20260504202451 23 317 1.6 6.4 0.00 0.00 0.00 38 1008.9
20260504202241 23 186 0.0 3.2 0.00 0.00 0.00 38 1008.9
20260504201450 23 178 0.0 3.2 0.00 0.00 0.00 41 1009.0
20260504200951 22 180 0.0 3.2 0.00 0.00 0.00 40 1009.0
20260504200447 22 189 0.0 6.4 0.00 0.00 0.00 39 1009.0
20260504195947 22 178 0.0 6.4 0.00 0.00 0.00 39 1009.0
20260504195448 22 178 0.0 3.2 0.00 0.00 0.00 38 1009.0
20260504194947 22 178 0.0 3.2 0.00 0.00 0.00 40 1009.0
20260504194448 22 233 0.0 3.2 0.00 0.00 0.00 38 1009.0
20260504194232 22 285 0.0 4.8 0.00 0.00 0.00 37 1009.0
20260504193443 22 226 1.6 4.8 0.00 0.00 0.00 35 1009.1
20260504192943 22 212 0.0 3.2 0.00 0.00 0.00 38 1009.2
20260504192443 22 180 1.6 4.8 0.00 0.00 0.00 36 1009.1
20260504192236 21 226 1.6 6.4 0.00 0.00 0.00 40 1009.1
20260504191441 21 173 1.6 8.0 0.00 0.00 0.00 38 1009.2
20260504190943 21 180 0.0 8.0 0.00 0.00 0.00 40 1009.2
20260504190435 21 162 1.6 6.4 0.00 0.00 0.00 39 1009.2
20260504185932 21 204 0.0 6.4 0.00 0.00 0.00 40 1009.2
20260504185431 21 279 0.0 4.8 0.00 0.00 0.00 40 1009.2
20260504184931 21 166 0.0 4.8 0.00 0.00 0.00 40 1009.2
20260504184431 21 183 0.0 3.2 0.00 0.00 0.00 43 1009.2
20260504183930 21 165 0.0 3.2 0.00 0.00 0.00 40 1009.2
20260504183431 21 171 0.0 4.8 0.00 0.00 0.00 40 1009.2
20260504182931 21 180 1.6 4.8 0.00 0.00 0.00 40 1009.2
20260504182429 21 348 1.6 4.8 0.00 0.00 0.00 40 1009.1
20260504181930 22 213 0.0 4.8 0.00 0.00 0.00 40 1009.2
20260504181431 22 278 1.6 4.8 0.00 0.00 0.00 40 1009.2
20260504180931 22 171 0.0 3.2 0.00 0.00 0.00 39 1009.2
20260504180430 22 124 0.0 3.2 0.00 0.00 0.00 40 1009.2
20260504175931 21 0 1.6 3.2 0.00 0.00 0.00 39 1009.2
20260504175713 21 196 0.0 3.2 0.00 0.00 0.00 41 1009.2
20260504175217 21 204 0.0 3.2 0.00 0.00 0.00 42 1009.3
20260504174429 21 158 0.0 3.2 0.00 0.00 0.00 39 1009.3
20260504173930 21 238 0.0 3.2 0.00 0.00 0.00 41 1009.3
20260504173430 21 234 0.0 4.8 0.00 0.00 0.00 43 1009.3
20260504172931 21 145 0.0 4.8 0.00 0.00 0.00 43 1009.3
20260504172430 21 131 0.0 4.8 0.00 0.00 0.00 41 1009.3
20260504172217 21 133 1.6 4.8 0.00 0.00 0.00 42 1009.3
20260504171431 20 120 0.0 3.2 0.00 0.00 0.00 44 1009.3
20260504170931 20 185 0.0 6.4 0.00 0.00 0.00 44 1009.1
20260504170430 20 42 0.0 6.4 0.00 0.00 0.00 47 1009.3
20260504170217 20 161 1.6 6.4 0.00 0.00 0.00 44 1009.2
20260504150930 16 123 0.0 3.2 0.00 0.00 0.00 49 1009.5
20260504150431 16 117 0.0 4.8 0.00 0.00 0.00 50 1009.5
20260504140923 9 316 0.0 3.2 0.00 0.00 0.00 73 1009.4
20260504140504 8 298 0.0 3.2 0.00 0.00 0.00 75 1009.3
20260504140450 8 316 0.0 3.2 0.00 0.00 0.00 74 1009.4
20260504130405 6 220 0.0 3.2 0.00 0.00 0.00 78 1008.8
20260504081913 8 210 0.0 0.0 0.00 0.00 0.00 73 1009.4
20260504081902 8 210 0.0 0.0 0.00 0.00 0.00 74 1009.4
20260504080831 8 210 0.0 0.0 0.00 0.00 0.00 73 1009.5
20260504080330 8 210 0.0 0.0 0.00 0.00 0.00 72 1009.4
20260504080114 8 210 0.0 0.0 0.00 0.00 0.00 73 1009.4
20260504070330 9 210 0.0 0.0 0.00 0.00 0.00 68 1009.7
20260504070119 9 210 0.0 0.0 0.00 0.00 0.00 68 1009.7
20260504050330 12 210 0.0 0.0 0.00 0.00 0.00 59 1010.2
20260504045830 12 210 0.0 0.0 0.00 0.00 0.00 59 1010.2
20260504045330 12 210 0.0 0.0 0.00 0.00 0.00 58 1010.2
20260504044830 13 210 0.0 0.0 0.00 0.00 0.00 58 1010.2
20260504044621 13 210 0.0 0.0 0.00 0.00 0.00 57 1010.2
20260504043831 13 210 0.0 0.0 0.00 0.00 0.00 56 1010.2
20260504043330 13 210 0.0 0.0 0.00 0.00 0.00 55 1010.2
20260504042907 14 210 0.0 0.0 0.00 0.00 0.00 53 1010.2
20260504042854 13 210 0.0 0.0 0.00 0.00 0.00 54 1010.2
20260504041829 14 210 0.0 0.0 0.00 0.00 0.00 52 1010.2
20260504041329 15 209 0.0 0.0 0.00 0.00 0.00 51 1010.2
20260504040830 15 210 0.0 0.0 0.00 0.00 0.00 50 1010.2
20260504040607 15 210 0.0 0.0 0.00 0.00 0.00 49 1010.2
20260504035826 15 210 0.0 0.0 0.00 0.00 0.00 48 1010.1